Location: Seattle
(47.6064°N, 122.3308°W)
Time: 02:37:23
(UTC-08:00)

A-11 Canister half - Pass Details

Date: 03 December 2020
Orbit: 1524 x 1684 km, 47.3° (Epoch: 21 January)

Event Time Altitude Azimuth Distance (km) Brightness Sun altitude
Rises 11:29:35 0° 291° (WNW) 4,899 11.4 19.8°
Reaches altitude 10° 11:33:07 10° 284° (WNW) 3,890 11.0 19.9°
Maximum altitude 11:41:39 35° 224° (SW) 2,404 10.9 20.0°
Drops below altitude 10° 11:49:56 10° 163° (SSE) 3,765 12.9 20.1°
Sets 11:53:19 0° 155° (SSE) 4,725 12.7 20.1°
